TimeCDT,TemperatureF,Dew PointF,Humidity,Sea Level PressureIn,VisibilityMPH,Wind Direction,Wind SpeedMPH,Gust SpeedMPH,PrecipitationIn,Events,Conditions,WindDirDegrees,DateUTC
12:56 AM,28.0,21.0,75,30.14,-9999.0,NW,12.7,-,N/A,,Unknown,310,2013-04-25 05:56:00
1:56 AM,28.0,21.0,75,30.14,-9999.0,NW,13.8,-,N/A,,Unknown,310,2013-04-25 06:56:00
2:56 AM,27.0,21.0,78,30.14,-9999.0,WNW,11.5,-,N/A,,Unknown,300,2013-04-25 07:56:00
3:56 AM,27.0,21.0,78,30.14,-9999.0,WNW,8.1,-,N/A,,Unknown,290,2013-04-25 08:56:00
4:56 AM,25.0,19.9,81,30.16,-9999.0,West,8.1,-,N/A,,Unknown,280,2013-04-25 09:56:00
5:56 AM,25.0,19.0,78,30.18,-9999.0,West,11.5,-,N/A,,Unknown,280,2013-04-25 10:56:00
6:56 AM,26.1,19.0,75,30.19,-9999.0,West,8.1,-,N/A,,Unknown,280,2013-04-25 11:56:00
7:56 AM,28.0,19.9,72,30.19,-9999.0,SSW,3.5,-,N/A,,Unknown,210,2013-04-25 12:56:00
8:56 AM,30.0,19.9,66,30.20,-9999.0,SSW,4.6,-,N/A,,Unknown,210,2013-04-25 13:56:00
9:56 AM,33.1,21.9,64,30.19,-9999.0,South,6.9,-,N/A,,Unknown,170,2013-04-25 14:56:00
10:56 AM,36.0,25.0,64,30.18,-9999.0,South,8.1,-,N/A,,Unknown,170,2013-04-25 15:56:00
11:56 AM,37.9,27.0,65,30.15,-9999.0,South,10.4,-,N/A,,Unknown,170,2013-04-25 16:56:00
12:56 PM,39.0,28.0,65,30.13,-9999.0,South,15.0,-,N/A,,Unknown,170,2013-04-25 17:56:00
1:56 PM,42.1,30.9,65,30.09,-9999.0,South,18.4,-,N/A,,Unknown,170,2013-04-25 18:56:00
2:56 PM,44.1,35.1,71,30.08,-9999.0,South,20.7,-,N/A,,Unknown,190,2013-04-25 19:56:00
3:56 PM,45.0,35.1,68,30.06,-9999.0,South,19.6,-,N/A,,Unknown,180,2013-04-25 20:56:00
4:56 PM,45.0,35.1,68,30.04,-9999.0,South,19.6,-,N/A,,Unknown,180,2013-04-25 21:56:00
5:56 PM,45.0,37.0,74,30.02,-9999.0,South,12.7,-,N/A,,Unknown,170,2013-04-25 22:56:00
6:56 PM,44.1,37.9,79,29.99,-9999.0,SSE,11.5,-,N/A,,Unknown,150,2013-04-25 23:56:00
7:56 PM,43.0,37.0,80,29.97,-9999.0,SSE,6.9,-,N/A,,Unknown,160,2013-04-26 00:56:00
8:56 PM,41.0,37.0,86,29.97,-9999.0,Calm,Calm,-,N/A,,Unknown,0,2013-04-26 01:56:00
9:56 PM,41.0,37.0,86,29.99,-9999.0,Calm,Calm,-,N/A,,Unknown,0,2013-04-26 02:56:00
10:56 PM,43.0,37.0,80,29.96,-9999.0,SSW,8.1,-,N/A,,Unknown,210,2013-04-26 03:56:00
11:19 PM,46.4,37.4,71,29.91,-9999.0,South,20.7,29.9,N/A,,Unknown,170,2013-04-26 04:19:00
11:56 PM,44.1,36.0,73,29.94,-9999.0,SSE,12.7,-,N/A,,Unknown,160,2013-04-26 04:56:00